Location: Centerville
(32.8776°N, 96.6203°W)
Time: 06:02:17
(UTC+00:00)

N. Korean satellite - Visible Passes

Search period start: 28 November 2022 00:00
Search period end: 08 December 2022 00:00
Orbit: 422 x 454 km, 97.3° (Epoch: 27 November)

Date Brightness Start Highest point End Pass type
(mag) Time Alt. Az. Time Alt. Az. Time Alt. Az.
28 Nov 7.0 12:07:24 10° N 12:10:31 33° WNW 12:13:35 10° SW visible
29 Nov 10.3 00:07:35 10° W 00:07:59 10° W 00:08:23 10° W visible
29 Nov 7.0 11:28:34 10° NNE 11:31:56 56° E 11:35:15 10° S visible
30 Nov 9.6 10:51:08 10° ENE 10:53:08 15° E 10:55:07 10° SE visible
30 Nov 7.7 12:22:58 10° NNW 12:25:33 20° WNW 12:28:07 10° WSW visible
01 Dec 6.2 11:43:35 10° N 11:47:00 81° WNW 11:50:21 10° SSW visible
02 Dec 8.8 11:05:24 10° NE 11:08:12 24° E 11:10:58 10° SSE visible
02 Dec 8.2 12:38:48 10° NW 12:40:26 13° WNW 12:42:03 10° W visible
03 Dec 6.6 11:58:38 10° N 12:01:54 45° WNW 12:05:07 10° SSW visible
03 Dec 9.8 23:57:21 10° SW 23:59:12 14° W 00:01:02 10° WNW visible
04 Dec 7.8 11:19:55 10° NNE 11:23:07 39° E 11:26:16 10° S visible
05 Dec 9.9 10:43:14 10° ENE 10:44:06 11° E 10:44:58 10° ESE visible
05 Dec 7.3 12:13:44 10° NNW 12:16:38 27° WNW 12:19:31 10° SW visible
06 Dec 6.6 11:34:31 10° NNE 11:37:53 70° E 11:41:11 10° S visible
07 Dec 9.3 10:56:34 10° NE 10:58:53 17° E 11:01:10 10° SE visible
07 Dec 7.9 12:28:57 10° NNW 12:31:13 17° WNW 12:33:28 10° WSW visible
